SCP
0 0 0 0 0 0 0 0 0 0 0 0 -0 -0 0 0 0 0 0 0 0 0 0 0 0 0 0 0 0 0 0 0 0 0 0 0 0 0 0 0 0 0 0 0
0 0 0 0 0 0 0 -0 0 0 0 0 -0 -0 0 0 0 0 0 0 0 0 0 0 0 0 0 0 0 0 0 0 0 0 0 0 0 0 0 0 0 0 0 0
0 0 0 0 0 0 0 -0 0 0 0 0 0 0 0 0 0 0 0 0 0 0 0 0 0 0 0 0 0 0 0 0 0 0 0 0 0 0 0 0 0 0 0 0
0 0 0 0 0 0 0 0 0 0 0 0 0 0 0 0 0 0 0 0 0 0 0 0 0 0 0 0 0 0 0 0 0 0 0 0 0 0 0 0 0 0 0 0
0 0 0 0 0 0 0 0 0 0 0 -0 -0 -0 0 0 0 0 0 0 0 0 0 0 0 0 0 0 0 0 0 0 0 0 0 0 0 0 0 0 0 0 0 0
0 0 0 0 0 0 0 0 0 0 0 0 -0 -0 0 0 0 0 0 0 0 0 0 0 0 0 0 0 0 0 0 0 0 0 0 0 0 0 0 0 0 0 0 0
0 0 0 0 0 0 0 0 0 0 0 0 0 0 0 0 0 0 0 0 0 0 0 0 0 0 0 0 0 0 0 0 0 0 0 0 0 0 0 0 0 0 0 0
0 0 0 0 0 0 0 0 -0 -0 -0 0 0 0 0 0 0 0 0 0 0 0 0 0 0 0 0 0 0 0 0 0 0 0 0 0 0 0 0 0 0 0 0 0
0 0 0 0 0 0 0 -0 -0 -0 -0 -0 0 0 0 0 0 0 0 0 0 0 0 0 0 0 0 0 0 0 0 0 0 0 0 0 0 0 0 0 0 0 0 0
0 0 0 0 0 0 0 -0 -0 -0 -0 -0 0 0 0 0 0 0 0 0 0 0 0 0 0 0 0 0 0 0 0 0 0 0 0 0 0 0 0 0 0 0 0 0
0 0 0 0 0 0 0 0 0 -0 -0 -0 0 0 0 0 0 0 0 0 0 0 0 0 0 0 0 0 0 0 0 0 0 0 0 0 0 0 0 0 0 0 0 0
0 0 0 0 0 0 0 0 0 0 -0 0 0 0 0 0 0 0 0 0 0 0 0 0 0 0 0 0 0 0 0 0 0 0 0 0 0 0 0 0 0 0 0 0
0 0 0 0 0 0 0 0 0 0 0 0 0 0 0 0 0 0 0 0 0 0 0 0 0 0 0 0 0 0 0 0 0 0 0 0 0 0 0 0 0 0 0 0
0 0 0 0 0 0 0 0 0 0 0 0 0 0 0 0 0 0 0 0 0 0 0 0 0 0 0 0 0 0 0 0 0 0 0 0 0 0 0 0 0 0 0 0
-0 -0 0 0 0 0 0 0 0 0 0 0 0 0 0 0 0 0 0 0 0 0 0 0 0 0 0 0 0 0 0 0 0 0 0 0 0 0 0 0 0 0 0 0
0 0 0 0 0 0 0 0 0 0 0 0 0 0 0 0 0 0 0 0 0 0 0 0 0 0 0 0 0 0 0 0 0 0 0 0 0 0 0 0 0 0 0 0
0 0 0 0 0 0 -0 0 0 0 0 0 0 0 0 0 0 0 0 0 0 0 0 0 0 0 0 0 0 0 0 0 0 0 0 0 0 0 0 0 0 0 0 0
0 0 0 0 0 -0 -0 0 0 0 0 0 0 0 0 0 0 0 0 0 0 0 0 0 0 0 0 0 0 0 0 0 0 0 0 0 0 0 0 0 0 0 0 0
0 0 0 0 0 -0 -0 -0 0 0 0 0 0 0 0 0 0 0 0 0 0 0 0 0 0 0 0 0 0 0 0 0 0 0 0 0 0 0 0 0 0 0 0 0
0 0 0 0 0 0 -0 0 0 0 0 0 0 0 0 0 0 0 0 0 0 0 0 0 0 0 0 0 0 0 0 0 0 0 0 0 0 0 0 0 0 0 0 0
0 0 0 0 0 0 -0 0 0 0 0 0 0 0 0 0 0 0 0 0 0 0 0 0 0 0 0 0 0 0 0 0 0 0 0 0 0 0 0 0 0 0 0 0
0 0 0 0 0 0 0 0 0 0 0 0 0 0 0 0 0 0 0 0 0 0 0 0 0 0 0 0 0 0 0 0 0 0 0 0 0 0 0 0 0 0 0 0
0 0 0 0 0 0 0 -0 -0 -0 0 0 0 0 0 0 0 0 0 0 0 0 0 0 0 0 0 0 0 0 0 0 0 0 0 0 0 0 0 0 0 0 0 0
0 0 0 0 0 0 0 0 -0 0 0 0 0 0 0 0 0 0 0 0 0 0 0 0 0 0 0 0 0 -0 -0 0 0 0 0 0 0 0 0 0 0 0 0 0
0 0 0 0 0 0 0 0 0 0 0 0 0 0 0 0 0 0 0 0 0 0 0 0 0 0 0 0 0 -0 -0 0 0 0 0 0 0 0 0 0 0 0 0 0
0 0 0 0 0 0 0 0 0 0 0 0 0 0 0 0 0 0 0 0 0 0 0 0 0 0 0 0 0 0 0 0 0 0 0 0 0 0 0 0 0 0 0 0
0 0 0 0 0 0 0 0 0 0 0 0 0 0 0 0 0 0 0 0 0 0 0 0 0 0 0 0 0 0 0 0 0 0 0 0 0 0 0 0 0 0 0 0
Wind_Speed
6 6 5 5 7 6 6 7 7 7 7 8 6 5 4 3 1 0 2 3 4 4 4 3 4 4 4 4 4 5 5 6 6 5 4 4 4 4 4 4 5 4 4 4
4 5 5 6 7 7 7 6 6 6 8 7 5 3 2 2 2 1 2 4 4 4 4 4 4 5 5 5 5 4 5 6 5 5 4 4 5 5 4 4 4 4 4 4
4 6 3 6 7 7 5 5 6 8 9 4 3 4 5 4 4 4 4 4 4 5 6 5 5 6 7 6 5 5 5 5 5 5 5 5 5 5 5 4 4 4 4 4
2 2 6 8 4 4 4 4 4 4 4 4 6 6 5 4 5 4 4 4 4 4 5 5 4 4 5 5 5 5 4 5 5 6 6 5 5 5 4 4 4 4 4 4
2 3 8 7 3 1 2 5 2 1 2 2 2 1 3 4 5 6 6 6 6 6 5 5 4 4 5 5 5 5 5 5 6 6 6 6 6 5 4 4 4 4 4 4
3 4 7 6 4 3 1 4 3 1 1 2 1 1 5 5 4 5 4 4 5 4 4 5 4 5 5 5 5 5 5 5 5 6 7 7 7 5 4 4 4 4 4 4
5 5 8 6 4 2 2 6 4 2 2 3 3 6 7 5 4 4 4 4 4 5 5 5 5 6 5 5 5 5 4 4 5 6 6 6 6 4 5 4 4 4 4 3
4 5 9 4 0 3 6 4 3 3 3 3 3 4 4 3 3 3 3 3 4 4 5 5 6 7 6 5 5 4 4 5 5 5 5 5 6 5 5 5 5 4 4 3
7 8 5 3 4 4 3 3 4 3 3 2 3 3 3 4 3 3 3 2 3 4 5 4 6 7 7 5 5 4 4 4 4 4 4 5 6 6 5 5 4 4 4 4
4 6 5 5 5 4 3 3 5 4 3 3 3 4 4 4 3 3 3 2 3 3 4 4 5 6 6 5 5 5 5 4 4 4 4 4 4 5 5 5 4 4 4 4
6 7 5 5 4 5 5 4 4 4 3 3 3 4 5 4 3 3 3 2 3 4 5 5 5 5 5 6 6 6 5 4 4 4 5 5 4 4 5 5 6 7 6 5
8 8 6 7 6 6 6 5 5 4 4 4 4 5 4 4 3 3 2 2 3 4 5 5 5 5 5 6 7 6 5 4 4 3 4 4 4 2 2 3 5 6 6 6
9 9 8 9 8 6 6 6 5 4 4 5 5 4 4 4 3 3 2 3 3 4 4 5 5 4 4 6 7 7 6 5 4 4 4 5 5 5 3 1 2 4 6 7
7 6 8 8 8 8 7 6 5 5 5 4 4 4 4 4 3 3 3 4 3 3 3 4 5 5 5 6 7 6 6 6 6 5 5 5 5 5 5 5 3 2 3 5
7 6 7 7 6 6 5 4 4 5 5 4 4 3 3 3 4 4 3 3 2 2 2 3 4 5 5 6 6 6 5 4 4 4 4 5 5 4 4 4 4 3 2 2
6 5 5 5 6 6 5 4 4 5 4 4 3 4 3 3 3 3 2 2 2 3 3 3 4 5 5 5 6 5 5 6 6 4 4 5 5 5 5 5 4 4 4 4
4 5 5 6 6 5 5 5 5 4 4 4 4 3 3 2 2 2 2 2 2 3 3 3 3 3 4 5 5 4 4 4 6 5 4 5 5 6 5 5 5 5 4 5
4 5 6 5 5 5 5 5 4 4 5 5 4 3 2 2 2 2 2 2 1 1 2 2 2 2 3 4 4 4 4 4 4 5 4 5 5 5 5 5 5 5 3 4
5 5 5 4 4 4 4 4 4 4 4 3 2 2 2 2 2 2 1 1 1 1 2 1 1 1 2 3 4 3 4 4 4 4 4 5 5 5 5 5 5 4 4 4
4 4 4 4 4 3 3 3 3 3 3 2 2 1 2 2 1 1 1 1 2 2 2 1 1 1 2 3 3 3 4 4 4 4 4 4 5 5 5 5 5 5 5 5
5 5 4 3 3 3 3 2 2 2 3 2 1 1 2 2 1 1 1 2 3 2 1 1 1 1 1 2 3 3 3 4 4 4 4 4 5 5 5 5 5 5 5 5
4 4 4 3 3 3 3 2 2 2 2 3 2 2 1 1 1 1 2 2 2 2 1 1 1 1 1 1 2 3 3 3 3 3 3 4 5 5 5 5 5 5 5 5
3 3 3 3 2 2 3 3 3 2 2 2 2 2 2 2 1 1 2 2 2 2 2 2 2 1 1 1 2 3 3 4 4 3 3 4 4 5 5 5 5 5 5 5
3 3 3 3 2 2 3 4 3 2 2 2 2 2 1 1 2 2 1 2 2 3 2 2 2 1 2 2 2 3 3 3 4 3 3 3 4 4 4 4 4 4 5 5
3 3 2 2 2 2 2 3 2 2 2 2 3 3 2 1 1 2 1 1 2 3 2 2 2 1 1 1 2 3 3 3 3 3 3 3 4 4 4 4 4 4 4 5
2 2 2 2 2 2 2 1 1 2 2 2 3 3 2 2 1 1 1 1 1 2 2 1 1 1 1 2 2 3 3 3 3 3 3 3 4 4 4 4 5 4 4 4
2 2 2 2 2 2 2 2 1 2 2 2 2 3 3 2 2 1 1 1 1 1 1 1 1 1 1 2 2 2 2 2 3 3 3 3 3 4 4 5 4 4 4 4
Wind_Direction
245 251 243 253 258 243 223 209 212 238 241 255 252 245 252 261 267 224 181 175 177 180 184 174 168 169 172 175 173 167 164 170 179 180 174 169 167 165 158 154 155 157 148 143
286 276 264 264 262 251 243 229 231 245 258 255 246 237 244 239 210 233 232 202 187 182 179 181 183 181 178 182 182 169 171 177 173 166 157 158 161 157 150 151 149 142 147 149
274 297 314 265 243 231 238 230 211 233 245 250 244 221 213 212 205 213 228 219 198 188 186 192 192 188 186 186 177 169 175 174 169 164 161 163 159 147 152 156 150 145 150 148
250 330 244 247 246 222 234 258 252 240 237 221 219 227 219 205 202 226 223 211 202 200 194 194 187 181 177 170 167 171 176 176 174 169 167 161 153 152 152 152 153 154 155 157
173 234 267 280 282 256 242 270 290 291 291 286 272 351 292 246 215 216 217 206 202 199 190 186 183 173 163 166 170 171 181 185 182 173 166 163 164 166 157 149 153 150 148 151
177 211 239 248 276 289 148 260 299 291 267 303 28 267 260 266 258 238 230 209 197 187 175 177 183 161 159 173 174 185 194 191 184 177 170 171 174 167 156 153 159 153 145 153
206 232 257 261 283 24 180 250 284 265 251 245 230 231 251 256 259 253 230 216 192 177 179 186 178 160 165 176 192 198 190 180 175 178 178 173 167 159 154 151 150 153 152 156
190 223 250 269 161 183 235 259 256 261 254 259 274 285 281 253 249 250 234 214 192 183 190 186 175 166 174 191 198 184 170 169 170 174 177 165 157 157 155 153 154 159 157 158
201 221 242 249 237 252 242 254 259 253 269 259 271 278 278 272 259 246 230 220 203 188 186 186 182 176 182 197 180 167 163 171 172 171 170 161 161 161 158 159 162 171 170 178
251 260 266 274 276 276 261 258 263 252 248 236 253 260 266 266 262 257 243 219 206 187 182 195 195 190 187 178 165 157 161 169 167 168 168 165 164 165 165 170 175 178 182 189
263 273 287 277 272 278 284 283 280 277 259 241 252 262 263 258 256 253 260 247 213 200 197 202 196 194 187 170 161 160 164 168 169 170 170 168 169 177 180 189 187 184 192 188
242 244 242 263 275 290 285 273 264 270 285 279 258 260 264 255 255 251 251 245 229 215 204 201 192 195 190 173 163 163 169 174 175 174 171 165 164 164 192 187 192 194 191 185
244 253 252 264 275 279 277 271 267 266 265 275 280 267 261 263 261 256 253 246 227 220 212 202 196 195 194 178 168 171 178 181 178 177 174 172 171 171 175 180 165 185 191 193
254 258 269 270 269 274 275 272 275 277 274 271 279 277 267 269 268 259 258 253 229 217 215 206 198 202 199 180 173 179 182 186 180 180 180 180 180 181 178 176 181 204 200 189
264 251 252 266 275 281 278 273 277 279 282 284 283 286 274 258 257 260 260 255 213 198 212 207 206 210 198 181 176 182 182 184 181 179 180 178 176 176 178 180 182 182 167 174
275 282 276 271 273 280 273 259 258 266 273 278 280 283 281 268 264 272 267 227 190 207 216 216 223 219 196 183 180 184 189 189 179 174 175 177 174 175 179 182 182 184 190 185
271 275 277 274 268 268 263 259 253 260 272 275 271 277 283 289 299 294 286 267 223 214 215 217 229 228 204 190 184 185 184 185 180 173 180 182 181 182 182 183 187 191 199 190
255 255 254 253 256 265 277 277 273 272 269 269 267 270 264 251 250 262 272 298 304 261 244 228 224 224 209 195 188 180 179 184 183 183 184 184 184 182 179 183 189 188 182 176
293 291 292 281 267 266 274 280 285 286 284 287 275 269 271 264 254 259 271 293 245 239 266 255 232 202 211 198 186 178 179 183 183 182 182 181 178 176 177 181 184 185 179 174
313 310 306 305 301 285 274 283 295 301 297 301 293 287 293 288 273 270 293 279 267 253 250 251 224 225 232 206 192 182 181 182 182 183 182 183 182 181 182 182 182 183 183 185
317 314 313 305 299 291 281 286 300 311 314 319 303 272 271 282 280 263 273 294 298 308 282 248 233 240 230 209 192 180 178 181 182 185 187 189 186 183 182 182 183 185 188 191
317 316 316 308 301 305 305 310 311 315 323 331 326 310 310 310 312 316 289 261 275 300 310 267 249 250 240 204 189 180 181 183 185 187 189 189 187 184 184 185 186 188 189 191
314 315 322 319 310 315 329 330 322 313 316 322 314 308 303 291 267 238 282 296 295 298 297 265 251 238 232 210 191 185 185 186 188 192 195 194 190 187 186 188 188 187 188 188
317 315 319 323 337 352 333 320 321 322 328 332 320 306 303 320 318 297 259 275 296 301 293 265 255 236 223 206 185 185 187 188 189 190 193 193 188 184 184 186 187 187 187 186
303 307 316 329 326 308 298 309 333 348 351 341 331 323 314 290 273 284 295 284 286 311 307 291 276 251 209 181 182 186 192 194 190 185 189 189 185 181 181 184 186 184 183 185
288 290 285 278 277 286 293 298 310 320 330 330 329 327 323 321 316 305 305 303 300 309 311 304 281 258 217 191 189 194 194 192 191 191 192 190 187 182 180 183 185 186 186 185
310 312 317 322 315 306 303 298 291 297 294 288 304 309 308 311 316 313 316 316 313 311 316 316 304 263 235 209 195 197 198 194 192 193 194 193 189 189 188 187 185 183 180 178